#timestamp,LO_Frequency,Hit,StdDev 
1503187215.9,286047000.4,P,1.1
1503187235.7,286047001.0,N,1.2
1503187255.6,286047000.3,N,1.1
1503187275.4,286046999.9,N,1.0
1503187295.2,286046998.5,N,1.0
1503187315.1,286046999.0,N,1.0
1503187316.0,286046999.0,N,0.9
1503187335.8,286046998.9,N,0.9
1503187355.6,286046996.5,Y,0.0
1503187375.5,286046999.0,P,0.2
1503187395.3,286046999.4,N,0.2
1503187415.2,286046996.6,P,1.2
1503187435.9,286046997.2,N,1.2
1503187455.7,286046997.2,N,1.2
1503187475.6,286046997.1,N,1.1
1503187495.4,286046999.5,N,1.2
1503187515.3,286046996.6,N,1.2
1503187535.1,286046999.2,N,1.2
1503187555.8,286046999.6,N,1.2
1503187575.7,286046997.1,N,1.2
1503187595.5,286046997.8,N,1.2
1503187615.4,286046997.7,N,1.1
1503187635.2,286046995.2,Y,0.0
1503187655.0,286046998.3,P,0.1
1503187655.9,286046998.3,P,0.1
1503187675.8,286046998.7,P,0.2
1503187695.6,286046999.1,Y,0.0
1503187715.5,286047001.0,P,1.3
1503187735.3,286046998.1,N,1.3
1503187755.1,286047000.0,N,1.2
1503187775.9,286046999.9,N,1.1
1503187795.7,286047002.2,N,1.4
1503187815.5,286047001.0,N,1.4
1503187835.4,286047000.9,N,1.3
1503187855.2,286047001.2,N,1.3
1503187875.1,286047000.9,N,1.2
1503187876.0,286047000.9,N,1.2
1503187895.8,286046998.4,N,1.3
1503187915.6,286046998.4,N,1.3
1503187935.5,286046998.3,N,1.3
1503187955.3,286046998.6,N,1.3
1503187975.2,286046998.2,N,1.4
1503187995.9,286046998.8,N,1.3
1503188015.7,286047001.1,N,1.3
1503188035.6,286047001.1,N,1.3
1503188055.4,286047000.6,N,1.3
1503188075.2,286046998.8,N,1.3
1503188095.1,286046998.7,N,1.3
1503188096.0,286046998.7,N,1.3
1503188115.8,286046998.8,N,1.3
1503188135.7,286046999.5,N,1.2
1503188155.5,286046999.6,N,1.2
1503188175.3,286046999.5,N,1.2
1503188195.2,286046997.5,N,1.2
1503188215.0,286046994.9,Y,0.0
1503188215.9,286046994.9,P,2.4
1503188235.8,286046995.1,N,2.2
1503188255.6,286046997.9,N,2.0
1503188275.4,286046997.9,N,1.8
1503188295.3,286046995.0,N,1.8
1503188315.1,286046995.0,N,1.8
1503188335.8,286046997.7,N,1.7
1503188355.7,286046997.8,N,1.7
1503188375.5,286046997.3,N,1.6
1503188395.4,286046995.5,N,1.6
1503188415.2,286046994.9,Y,0.0
1503188435.0,286046998.2,P,0.7
1503188435.9,286046998.2,N,0.7
1503188455.8,286047001.1,N,1.6
1503188475.6,286046998.1,N,1.4
1503188495.5,286046998.4,N,1.3
1503188515.3,286046998.5,N,1.2
1503188535.1,286046998.5,N,1.1
1503188555.9,286046998.8,N,1.1
1503188575.7,286046998.8,N,1.0
1503188595.6,286046999.0,N,1.0
1503188615.4,286046998.3,N,0.9
1503188635.2,286046998.3,N,0.9
1503188655.1,286047001.1,N,1.1
1503188656.0,286047001.1,N,1.2
1503188675.8,286047001.1,N,1.3
1503188695.7,286046999.9,N,1.3
1503188715.5,286046999.8,N,1.3
1503188735.3,286047002.8,N,1.5
1503188755.2,286047000.2,N,1.4
1503188775.0,286047002.3,N,1.5
1503188775.9,286047002.3,N,1.6
1503188825.8,286047004.0,E,nan
1503188835.7,286047000.3,N,0.0
1503188855.6,286046999.4,P,0.5
1503188875.4,286046998.9,N,0.6
1503188895.2,286046999.0,N,0.6
1503188915.1,286046998.6,N,0.6
1503188916.0,286046998.6,N,0.6
1503188935.8,286046998.6,N,0.6
1503188955.7,286046998.3,Y,0.0
1503188975.5,286047000.4,P,0.7
1503188995.3,286047000.7,N,0.7
1503189015.2,286047000.1,N,0.6
1503189035.9,286047002.3,Y,0.0
1503189055.7,286047000.3,P,0.1
1503189075.6,286046999.7,N,0.2
1503189095.4,286047002.8,P,1.2
1503189115.3,286047001.9,N,1.2
1503189135.1,286047002.0,N,1.2
1503189136.0,286047002.0,N,1.1
1503189155.8,286047002.1,N,1.1
1503189175.7,286047002.0,N,1.0
1503189195.5,286047002.0,N,1.0
1503189215.4,286047001.4,N,1.0
1503189235.2,286047001.5,N,0.9
1503189255.0,286047004.4,Y,0.0
1503189255.9,286047004.4,P,1.5
1503189275.8,286046999.9,N,1.9
1503189295.6,286047002.6,N,1.6
1503189315.4,286047002.4,N,1.5
1503189335.3,286047002.4,N,1.3
1503189355.1,286047002.3,N,1.2
1503189375.9,286047000.2,N,1.3
1503189395.7,286047002.3,N,1.3
1503189415.5,286047000.0,N,1.3
1503189435.4,286047002.4,N,1.3
1503189455.2,286047002.5,N,1.3
1503189475.1,286047001.6,N,1.2
1503189476.0,286047001.6,N,1.2
1503189495.8,286047002.5,N,1.1
1503189515.6,286047002.6,N,1.1
1503189535.5,286047002.2,N,1.1
1503189555.3,286047004.1,Y,0.0
1503189575.1,286046999.7,P,1.1
1503189595.9,286047000.0,N,1.0
1503189615.7,286047000.1,N,0.9
1503189635.6,286047002.3,N,1.1
1503189655.4,286047000.1,N,1.0
1503189675.2,286047002.3,N,1.1
1503189695.1,286047002.5,N,1.2
1503189696.0,286047002.5,N,1.2
1503189715.8,286047002.6,N,1.2
1503189735.7,286047001.6,N,1.1
1503189755.5,286047002.1,N,1.1
1503189775.3,286047001.7,N,1.1
1503189795.2,286047004.4,Y,0.0
1503189815.0,286047002.8,P,0.7
1503189815.9,286047002.8,P,0.6
1503189835.8,286047002.7,P,0.6
1503189855.6,286047002.7,Y,0.0
1503189875.4,286046999.0,P,1.7
1503189895.3,286046999.3,N,1.6
1503189915.1,286046999.1,N,1.4
1503189935.9,286046999.4,N,1.3
1503189955.7,286046999.1,N,1.2
1503189975.5,286046999.3,N,1.1
1503189995.4,286046998.7,N,1.1
1503190015.2,286046999.4,N,1.1
1503190035.1,286046999.0,N,1.0
1503190036.0,286046999.0,N,1.0
1503190055.8,286046998.9,N,0.9
1503190075.6,286046999.3,N,0.9
1503190095.5,286046999.4,N,0.9
1503190115.3,286046999.0,N,0.9
1503190135.1,286046998.6,N,0.8
1503190155.9,286047001.2,N,0.9
1503190175.7,286046998.3,N,0.9
1503190195.6,286047000.6,N,1.0
1503190215.4,286046998.7,N,0.9
1503190235.2,286046998.1,N,1.0
1503190255.1,286046998.3,N,1.0
1503190256.0,286046998.3,N,1.0
1503190275.8,286046999.0,N,0.9
1503190295.7,286047001.2,N,1.0
1503190315.5,286047000.4,N,1.0
1503190335.3,286047001.1,N,1.0
1503190355.2,286046999.9,N,1.0
1503190375.0,286047000.3,N,1.0
1503190375.9,286047000.3,N,1.0
1503190395.7,286047000.6,N,0.9
1503190415.6,286047000.5,N,0.9
1503190435.4,286047000.7,N,0.9
1503190455.3,286047000.9,N,1.0
1503190475.1,286047000.5,N,1.0
1503190476.0,286047000.5,N,1.0
1503190495.8,286047000.3,N,1.0
1503190515.7,286047001.0,N,1.0
1503190535.5,286046999.7,N,1.0
1503190555.4,286047000.3,N,1.0
1503190575.2,286047000.0,N,1.0
1503190595.0,286047002.8,N,1.1
1503190595.9,286047002.8,N,1.2
1503190615.8,286047000.2,N,1.2
1503190635.6,286047002.7,N,1.2
1503190655.5,286047002.8,N,1.3
1503190675.3,286046999.7,N,1.3
1503190695.1,286047002.6,N,1.3
1503190715.9,286047002.6,N,1.3
1503190735.7,286047002.8,N,1.4
1503190755.6,286047000.2,N,1.3
1503190775.4,286047000.9,N,1.2
1503190795.2,286047000.0,N,1.1
